Galena, AK

3:41 PM AKST on January 21, 2017 (GMT -0900)
Galena

Weather History for PAGA - February, 2013

Change the Weather History Date:

Thursday, February 21, 2013

  Actual Average Record
Temperature  
Mean Temperature -10 °F -  
Max Temperature 3 °F 1 °F 35 °F (1967)
Min Temperature -23 °F -16 °F -47 °F (1976)
Degree Days  
Heating Degree Days 75    
Moisture  
Dew Point -13 °F    
Average Humidity 77    
Maximum Humidity 83    
Minimum Humidity 66    
Precipitation  
Precipitation 0.00 in - - ()
Sea Level Pressure  
Sea Level Pressure 29.51 in    
Wind  
Wind Speed 2 mph (North)    
Max Wind Speed 9 mph    
Max Gust Speed -    
Visibility 7 miles    
Events Snow    
Averages and records for this station are not official NWS values.
T = Trace of Precipitation, MM = Missing Value Source: NWS Daily Summary

Daily Weather History Graph

Daily Weather History Graph

Search for Another Location

Airport or City:

Trip Planner

Search our weather history database for the weather conditions in past years. The results will help you decide how hot, cold, wet, or windy it might be!

Date:

Astronomy

Feb. 21, 2013 Rise Set
Actual Time 9:03 AM AKST 6:20 PM AKST
Civil Twilight 8:12 AM AKST 7:11 PM AKST
Nautical Twilight 7:16 AM AKST 8:07 PM AKST
Astronomical Twilight 6:19 AM AKST 9:05 PM AKST
Moon 1:41 PM AKST (2/21) 7:22 AM AKST (2/21)
Length of Visible Light 10h 58m
Length of Day
9h 17m
Waxing Gibbous, 85% of the Moon is Illuminated
Feb 21
Waxing Gibbous
Feb 25
Full
Mar 4
Last Quarter
Mar 11
New
Mar 19
First Quarter

Hourly Weather History & Observations

Time (AKST) Temp. Windchill Dew Point Humidity Pressure Visibility Wind Dir Wind Speed Gust Speed Precip Events Conditions
12:58 AM -14.1 °F - -20.0 °F 75% 29.57 in 10.0 mi Calm Calm - N/A   Clear
1:58 AM -20.0 °F - -26.0 °F 74% 29.58 in 10.0 mi Calm Calm - N/A   Clear
2:58 AM -20.9 °F - -26.0 °F 77% 29.57 in 7.0 mi Calm Calm - N/A   Clear
3:58 AM -23.1 °F -34.2 °F -29.0 °F 74% 29.57 in 10.0 mi North 3.5 mph - N/A   Mostly Cloudy
4:58 AM -22.0 °F -33.0 °F -27.0 °F 77% 29.56 in 10.0 mi NNE 3.5 mph - N/A   Overcast
5:58 AM -20.0 °F -30.7 °F -25.1 °F 78% 29.55 in 10.0 mi NNW 3.5 mph - N/A   Overcast
6:58 AM -16.1 °F - -20.0 °F 82% 29.54 in 9.0 mi Calm Calm - 0.00 in Snow Light Snow
7:58 AM -15.0 °F - -18.9 °F 82% 29.53 in 8.0 mi Calm Calm - 0.00 in Snow Light Snow
8:58 AM -11.0 °F - -16.1 °F 78% 29.52 in 7.0 mi Calm Calm - 0.00 in Snow Light Snow
9:58 AM -11.0 °F - -15.0 °F 83% 29.52 in 5.0 mi Calm Calm - 0.00 in Snow Light Snow
10:58 AM -8.0 °F - -13.0 °F 79% 29.51 in 5.0 mi Calm Calm - 0.00 in Snow Light Snow
11:58 AM -5.1 °F - -9.9 °F 80% 29.50 in 2.5 mi Calm Calm - 0.00 in Snow Light Snow
12:20 PM -4.0 °F - -9.4 °F 78% 29.48 in 3.0 mi Calm Calm - 0.00 in Snow Light Snow
12:34 PM -2.2 °F - -9.4 °F 71% 29.48 in 2.5 mi Calm Calm - 0.00 in Snow Light Snow
12:58 PM -0.9 °F -11.0 °F -7.1 °F 75% 29.50 in 1.8 mi Variable 4.6 mph - 0.00 in Snow Light Snow
1:16 PM -0.4 °F -8.3 °F -5.8 °F 78% 29.48 in 2.0 mi Variable 3.5 mph - 0.00 in Snow Light Snow
1:28 PM 1.4 °F -13.5 °F -5.8 °F 72% 29.47 in 3.0 mi North 9.2 mph - 0.00 in Snow Light Snow
1:58 PM 3.9 °F -8.2 °F -5.1 °F 66% 29.49 in 6.0 mi Variable 6.9 mph - 0.00 in Snow Light Snow
2:58 PM 3.0 °F -10.5 °F -6.0 °F 66% 29.49 in 9.0 mi NNE 8.1 mph - 0.00 in   Overcast
3:58 PM -0.0 °F -14.2 °F -7.1 °F 72% 29.48 in 6.0 mi North 8.1 mph - 0.00 in Snow Light Snow
4:58 PM -0.0 °F -11.6 °F -7.1 °F 72% 29.48 in 4.0 mi North 5.8 mph - 0.00 in Snow Light Snow
5:58 PM -0.9 °F -12.7 °F -7.1 °F 75% 29.48 in 5.0 mi North 5.8 mph - 0.00 in Snow Light Snow
6:58 PM -2.0 °F -10.1 °F -7.1 °F 79% 29.49 in 9.0 mi North 3.5 mph - 0.00 in   Overcast
7:58 PM -2.0 °F -13.9 °F -7.1 °F 79% 29.49 in 9.0 mi North 5.8 mph - 0.00 in Snow Light Snow
8:58 PM -2.9 °F -11.2 °F -8.0 °F 79% 29.50 in 9.0 mi North 3.5 mph - 0.00 in Snow Light Snow
9:58 PM -4.0 °F - -9.0 °F 79% 29.51 in 8.0 mi Calm Calm - 0.00 in Snow Light Snow
10:58 PM -5.1 °F -15.8 °F -9.0 °F 83% 29.52 in 8.0 mi North 4.6 mph - 0.00 in Snow Light Snow
11:58 PM -6.0 °F -14.7 °F -9.9 °F 83% 29.53 in 5.0 mi NNW 3.5 mph - 0.00 in Snow Light Snow